Date String (YYYY-MM-DD hh:mm:ss) UTC,Instrument flags,absolute air pressure of the measurement (hPa),sample flow rate (lpm),inlet stack bypass flow (lpm),air temperature of the measurement (°C),ambient temperature measured by the external sensor (°C),aerosol sample conditioner tube jacket temperature (°C),OPC LED temperature (°C),internal box temperature (°C),relative humidity of the measurement (%),span deviation,mass concentration of particles derived from Lorenz-Mie calculation of OPC scattering (μg/m³),mass concentration of particles derived from Lorenz-Mie calculation of OPC scattering (μg/m³),mass concentration of particles derived from Lorenz-Mie calculation of OPC scattering (μg/m³)
DateTimeUTC,F1_M11,P_M11,Q1_M11,Q2_M11,T1_M11,T2_M11,T3_M11,T4_M11,T5_M11,U1_M11,ZSPAN_M11,X2_M11,X0_M11,X1_M11
2024-03-30 13:00:00,SystemResetWarning,0823.6,5.00,000.00,020.1,019.4,000.0,028.7,021.9,27.7,-001.1,0008.32,0010.76,0007.92
2024-03-30 13:01:00,SystemResetWarning,0823.7,4.99,000.00,020.1,019.4,000.0,028.7,021.9,27.6,-002.0,0008.25,0010.90,0007.87
2024-03-30 13:02:00,SystemResetWarning,0823.8,5.00,000.00,020.1,019.4,000.0,028.7,021.9,27.4,-001.5,0008.23,0011.56,0007.81
2024-03-30 13:03:00,SystemResetWarning,0823.8,5.00,000.00,020.1,019.4,000.0,028.7,021.9,27.4,-000.7,0008.20,0011.46,0007.78
2024-03-30 13:04:00,SystemResetWarning,0823.8,5.00,000.00,020.1,019.4,000.0,028.7,021.9,27.3,-001.9,0008.17,0011.43,0007.73
2024-03-30 13:05:00,SystemResetWarning,0823.8,4.99,000.00,020.1,019.4,000.0,028.7,021.9,27.3,-001.7,0008.11,0011.37,0007.68
2024-03-30 13:06:00,SystemResetWarning,0823.8,5.00,000.00,020.1,019.4,000.0,028.7,021.9,27.4,-001.1,0008.08,0011.30,0007.66
2024-03-30 13:07:00,SystemResetWarning,0823.8,5.00,000.00,020.1,019.4,000.0,028.7,021.9,27.4,-000.9,0008.14,0011.50,0007.69
2024-03-30 13:08:00,SystemResetWarning,0823.8,5.00,000.00,020.1,019.4,000.0,028.7,021.9,27.5,-000.9,0008.23,0012.23,0007.75
2024-03-30 13:09:00,SystemResetWarning,0823.8,5.00,000.00,020.1,019.4,000.0,028.7,021.9,27.6,-001.1,0008.25,0013.54,0007.79
2024-03-30 13:10:00,SystemResetWarning,0823.7,5.00,000.00,020.1,019.4,000.0,028.7,021.9,27.7,-000.8,0008.28,0014.22,0007.83
2024-03-30 13:11:00,SystemResetWarning,0823.8,5.00,000.00,020.1,019.4,000.0,028.7,021.9,27.8,-000.7,0008.36,0014.32,0007.91
2024-03-30 13:12:00,SystemResetWarning,0823.8,5.00,000.00,020.1,019.4,000.0,028.7,021.9,27.8,-000.5,0008.43,0014.21,0007.97
2024-03-30 13:13:00,SystemResetWarning,0823.8,5.00,000.00,020.1,019.4,000.0,028.7,021.9,27.8,-000.1,0008.47,0013.74,0008.04
2024-03-30 13:14:00,SystemResetWarning,0823.8,5.00,000.00,020.1,019.4,000.0,028.7,021.9,27.7,0000.2,0008.52,0013.61,0008.08
2024-03-30 13:15:00,SystemResetWarning,0823.7,5.00,000.00,020.1,019.4,000.0,028.7,021.9,27.7,0000.2,0008.57,0013.68,0008.12
2024-03-30 13:16:00,SystemResetWarning,0823.8,5.00,000.00,020.1,019.4,000.0,028.7,021.9,27.7,0000.5,0008.63,0013.77,0008.15
2024-03-30 13:17:00,SystemResetWarning,0823.8,5.00,000.00,020.1,019.4,000.0,028.6,021.9,27.7,0000.8,0008.68,0013.95,0008.16
2024-03-30 13:18:00,SystemResetWarning,0823.7,5.00,000.00,020.1,019.4,000.0,028.6,021.9,27.7,0000.8,0008.66,0014.35,0008.14
2024-03-30 13:19:00,SystemResetWarning,0823.7,5.00,000.00,020.1,019.4,000.0,028.6,021.9,27.6,0001.0,0008.61,0014.28,0008.11
2024-03-30 13:20:00,SystemResetWarning,0823.6,5.00,000.00,020.1,019.4,000.0,028.6,021.9,27.6,0001.2,0008.58,0013.40,0008.07
2024-03-30 13:21:00,SystemResetWarning,0823.7,5.00,000.00,020.1,019.4,000.0,028.6,021.9,27.6,0001.3,0008.54,0011.80,0008.02
2024-03-30 13:22:00,SystemResetWarning,0823.7,5.00,000.00,020.1,019.4,000.0,028.6,021.9,27.5,0000.9,0008.42,0011.65,0007.92
2024-03-30 13:23:00,SystemResetWarning,0823.8,4.99,000.00,020.1,019.4,000.0,028.6,021.9,27.6,0001.1,0008.30,0011.50,0007.81
2024-03-30 13:24:00,SystemResetWarning,0823.8,5.00,000.00,020.1,019.4,000.0,028.6,021.9,27.6,0000.7,0008.19,0011.32,0007.73
2024-03-30 13:25:00,SystemResetWarning,0823.7,5.00,000.00,020.1,019.4,000.0,028.6,021.9,27.5,0000.1,0008.14,0011.31,0007.65
2024-03-30 13:26:00,SystemResetWarning,0823.8,5.00,000.00,020.1,019.4,000.0,028.6,021.9,27.5,0000.1,0008.05,0011.24,0007.59
2024-03-30 13:27:00,SystemResetWarning,0823.8,5.00,000.00,020.1,019.4,000.0,028.6,021.9,27.5,0000.4,0007.97,0011.38,0007.53
2024-03-30 13:28:00,SystemResetWarning,0823.7,5.00,000.00,020.1,019.4,000.0,028.6,021.8,27.5,0000.2,0007.93,0011.46,0007.51
2024-03-30 13:29:00,SystemResetWarning,0823.7,5.00,000.00,020.1,019.4,000.0,028.6,021.8,27.5,0000.1,0007.89,0011.25,0007.49
2024-03-30 13:30:00,SystemResetWarning,0823.7,5.00,000.00,020.1,019.4,000.0,028.6,021.8,28.0,0000.0,0007.92,0010.82,0007.51
2024-03-30 13:31:00,SystemResetWarning,0823.7,5.00,000.00,020.0,019.4,000.0,028.6,021.8,27.9,-000.0,0008.00,0010.85,0007.59
2024-03-30 13:32:00,SystemResetWarning,0823.7,5.00,000.00,020.0,019.4,000.0,028.6,021.8,27.9,-000.4,0008.12,0010.99,0007.69
2024-03-30 13:33:00,SystemResetWarning,0823.7,5.00,000.00,020.0,019.4,000.0,028.6,021.8,27.9,0000.2,0008.28,0011.97,0007.82
2024-03-30 13:34:00,SystemResetWarning,0823.7,5.00,000.00,020.0,019.4,000.0,028.6,021.8,27.9,-000.0,0008.42,0012.14,0007.95
2024-03-30 13:35:00,SystemResetWarning,0823.7,5.00,000.00,020.0,019.4,000.0,028.6,021.8,27.9,-000.2,0008.56,0012.35,0008.07
2024-03-30 13:36:00,SystemResetWarning,0823.7,5.00,000.00,020.0,019.4,000.0,028.6,021.8,27.9,0000.1,0008.68,0012.47,0008.21
2024-03-30 13:37:00,SystemResetWarning,0823.7,5.00,000.00,020.0,019.4,000.0,028.6,021.8,27.9,0000.6,0008.80,0012.56,0008.35
2024-03-30 13:38:00,SystemResetWarning,0823.7,5.00,000.00,020.0,019.4,000.0,028.6,021.8,27.6,0000.0,0008.89,0012.50,0008.43
2024-03-30 13:39:00,SystemResetWarning,0823.7,5.00,000.00,020.0,019.4,000.0,028.6,021.8,27.6,0000.2,0008.86,0012.19,0008.41
2024-03-30 13:40:00,SystemResetWarning,0823.6,5.00,000.00,020.0,019.4,000.0,028.6,021.8,27.8,-000.1,0008.93,0012.31,0008.46
2024-03-30 13:41:00,SystemResetWarning,0823.6,5.00,000.00,020.0,019.4,000.0,028.6,021.8,28.0,-000.5,0009.03,0012.41,0008.54
2024-03-30 13:42:00,SystemResetWarning,0823.6,5.00,000.00,020.0,019.4,000.0,028.6,021.8,28.1,-001.0,0009.10,0012.53,0008.61
2024-03-30 13:43:00,SystemResetWarning,0823.7,5.00,000.00,020.0,019.4,000.0,028.6,021.8,28.2,-000.9,0009.13,0012.62,0008.65
2024-03-30 13:44:00,SystemResetWarning,0823.7,4.99,000.00,020.0,019.4,000.0,028.6,021.8,28.3,-001.0,0009.11,0011.84,0008.65
2024-03-30 13:45:00,SystemResetWarning,0823.7,5.00,000.00,020.0,019.4,000.0,028.6,021.8,28.4,-001.1,0009.10,0011.68,0008.65
2024-03-30 13:46:00,SystemResetWarning,0823.7,5.00,000.00,020.0,019.4,000.0,028.6,021.8,28.8,-000.9,0009.11,0011.63,0008.66
2024-03-30 13:47:00,SystemResetWarning,0823.8,5.00,000.00,020.0,019.4,000.0,028.6,021.8,28.7,-000.9,0009.11,0011.87,0008.66
2024-03-30 13:48:00,SystemResetWarning,0823.8,5.00,000.00,020.0,019.4,000.0,028.6,021.8,28.7,-001.2,0009.09,0012.03,0008.64
2024-03-30 13:49:00,SystemResetWarning,0823.8,5.00,000.00,020.0,019.4,000.0,028.6,021.8,28.8,-001.3,0009.12,0012.21,0008.68
2024-03-30 13:50:00,SystemResetWarning,0823.7,5.01,000.00,020.0,019.4,000.0,028.6,021.8,28.8,-001.3,0009.22,0012.50,0008.80
2024-03-30 13:51:00,SystemResetWarning,0823.6,5.00,000.00,020.0,019.4,000.0,028.6,021.8,28.8,-001.5,0009.26,0012.64,0008.84
2024-03-30 13:52:00,SystemResetWarning,0823.6,5.00,000.00,020.0,019.4,000.0,028.6,021.8,28.8,-001.4,0009.21,0012.55,0008.84
2024-03-30 13:53:00,SystemResetWarning,0823.6,4.99,000.00,020.0,019.4,000.0,028.6,021.8,28.9,-001.1,0009.17,0012.51,0008.83
2024-03-30 13:54:00,SystemResetWarning,0823.6,5.00,000.00,020.0,019.4,000.0,028.6,021.8,28.9,-001.3,0009.19,0013.18,0008.81
2024-03-30 13:55:00,SystemResetWarning,0823.7,5.00,000.00,020.0,019.4,000.0,028.6,021.8,28.9,-001.6,0009.18,0013.56,0008.77
2024-03-30 13:56:00,SystemResetWarning,0823.7,5.00,000.00,020.0,019.4,000.0,028.5,021.8,29.0,-001.5,0009.14,0013.51,0008.74
2024-03-30 13:57:00,SystemResetWarning,0823.7,5.00,000.00,020.0,019.4,000.0,028.5,021.8,28.9,-001.7,0009.11,0013.55,0008.69
2024-03-30 13:58:00,SystemResetWarning,0823.7,5.00,000.00,020.0,019.4,000.0,028.5,021.8,29.1,-001.6,0009.07,0013.32,0008.64
2024-03-30 13:59:00,SystemResetWarning,0823.7,5.00,000.00,020.0,019.4,000.0,028.6,021.8,29.4,-001.2,0009.05,0013.13,0008.60
